Weather Service Report


195 
ASUS41 KBTV 180930
RWRBTV
VERMONT REGIONAL WEATHER ROUNDUP
NATIONAL WEATHER SERVICE BURLINGTON VT
400 AM EST THU DEC 18 2014

NOTE: "FAIR" INDICATES FEW OR NO CLOUDS BELOW 12,000 FEET WITH NO 
SIGNIFICANT WEATHER AND/OR OBSTRUCTIONS TO VISIBILITY.

* THESE REPORTS ARE NOT UNDER NWS QUALITY CONTROL AND/OR DO NOT
  REPORT WEATHER SUCH AS PRECIPITATION AND FOG.

VTZ001>019-181000-
_____VERMONT_____

  
CITY           SKY/WX    TMP DP  RH WIND       PRES   REMARKS
BURLINGTON     LGT SNOW  34  31  88 CALM      29.77R FOG              
MONTPELIER     LGT SNOW  33  30  88 NW13G20   29.73F FOG              
MORRISVILLE    LGT SNOW  33  31  92 NE3       29.73S FOG              
ST. JOHNSBURY*   N/A     33  32  96 MISG      29.68F                  
LYNDONVILLE*   LGT SNOW  33  31  94 W3        29.69S                  
MIDDLEBURY*    LGT SNOW  33  33 100 CALM      29.76R                  
RUTLAND*       CLOUDY    34  28  80 W12       29.74S                  
SPRINGFIELD    CLOUDY    37  28  70 VRB7      29.72F                  
HIGHGATE*      LGT SNOW  32  32  99 CALM      29.77S                  
NEWPORT*       LGT SNOW  31  30  93 NW3       29.70S                  
BENNINGTON     LGT SNOW  32  29  88 SW8G20    29.79S FOG              
SUTTON*          N/A     30 N/A N/A MISG        N/A                   
GALLUP MILLS*    N/A     32 N/A N/A MISG        N/A                   
UNION VILLAGE*   N/A     32 N/A N/A MISG        N/A                   
MT. MANSFIELD*   N/A     23 N/A N/A CALM        N/A                   

_____LAKE CHAMPLAIN_____

  
CITY           SKY/WX    TMP DP  RH WIND       PRES   REMARKS
BURTON ISLAND*   N/A     34  34 100 N1          N/A                   
COLCHESTER RF*   N/A     36  36 100 NE10        N/A                   

$$

NYZ007-026>031-035-052-083-181000-
_____NORTHERN NEW YORK_____

  
CITY           SKY/WX    TMP DP  RH WIND       PRES   REMARKS
PLATTSBURGH    LGT RAIN  33  32  96 CALM      29.77S FOG              
SARANAC LAKE   CLOUDY    30  32 100 W5        29.74S FOG              
MASSENA        LGT SNOW  33  31  92 W8        29.83R FOG              
OGDENSBURG*    LGT SNOW  34  34 100 W7G16     29.86R                  
POTSDAM*       LGT SNOW  34  34 100 W10       29.83S                  
STARK FALLS*     N/A     32 N/A N/A W5          N/A                   
WATERTOWN      LGT SNOW  34  29  82 W15       29.90S                  
FT DRUM        LGT SNOW  31  30  94 W10       29.86S FOG              
ALBANY         LGT SNOW  35  29  78 W10G20    29.85S                  
GLENS FALLS    CLOUDY    33  31  92 S10       29.79S                  

$$
NHZ002-005-011-181000-
_____NEW HAMPSHIRE_____

  
CITY           SKY/WX    TMP DP  RH WIND       PRES   REMARKS
LEBANON        CLOUDY    34  32  92 CALM      29.71S FOG              
KEENE          CLOUDY    34  30  86 CALM      29.73F                  
MT WASHINGTON  SNOW      14  14 100 NW47G56     N/A  VSB 1/16WCI -11  
PLYMOUTH       CLOUDY    37  35  95 W10G16    29.66F                  
WHITEFIELD     LGT SNOW  34  32  92 S3        29.67F FOG              

$$

_____REGIONAL QUEBEC LOCATIONS_____

  
CITY           SKY/WX    TMP DP  RH WIND       PRES   REMARKS
MONTREAL       LGT SNOW  32  30  93 W5        29.79R FOG              
QUEBEC CITY    LGT SNOW  30  28  93 E6        29.74F VSB 1            
SHERBROOKE     LGT SNOW  30  30 100 W9        29.68S                  

_____REGIONAL ONTARIO LOCATIONS_____

  
CITY           SKY/WX    TMP DP  RH WIND       PRES   REMARKS
OTTAWA         LGT SNOW  32  30  93 W14G20    29.83R FOG              

______KEY______
VSB  - VISIBILITY IN MILES
WCI  - WIND CHILL INDEX
HX   - HEAT INDEX
$$
NNNN

Return to Home page


Western Regional Climate Center, wrcc@dri.edu